TimeCDT,TemperatureF,Dew PointF,Humidity,Sea Level PressureIn,VisibilityMPH,Wind Direction,Wind SpeedMPH,Gust SpeedMPH,PrecipitationIn,Events,Conditions,WindDirDegrees,DateUTC
12:54 AM,61.0,48.9,64,29.86,10.0,SE,8.1,-,N/A,,Clear,130,2012-05-23 05:54:00
1:54 AM,60.1,48.0,64,29.85,10.0,SE,6.9,-,N/A,,Clear,130,2012-05-23 06:54:00
2:54 AM,57.2,48.2,72,29.85,10.0,SE,6.9,-,N/A,,Clear,130,2012-05-23 07:54:00
3:54 AM,57.0,48.9,74,29.83,10.0,SE,5.8,-,N/A,,Clear,140,2012-05-23 08:54:00
4:54 AM,57.0,48.0,72,29.83,10.0,SE,8.1,-,N/A,,Clear,140,2012-05-23 09:54:00
5:54 AM,57.0,48.0,72,29.82,10.0,SE,10.4,-,N/A,,Clear,140,2012-05-23 10:54:00
6:54 AM,59.0,48.9,69,29.82,10.0,SE,6.9,-,N/A,,Clear,140,2012-05-23 11:54:00
7:54 AM,64.0,50.0,60,29.81,10.0,SSE,11.5,-,N/A,,Clear,150,2012-05-23 12:54:00
8:54 AM,68.0,51.1,55,29.82,10.0,South,13.8,-,N/A,,Clear,170,2012-05-23 13:54:00
9:54 AM,73.0,48.9,42,29.81,10.0,South,16.1,23.0,N/A,,Clear,180,2012-05-23 14:54:00
10:54 AM,77.0,50.0,39,29.80,10.0,South,12.7,23.0,N/A,,Clear,170,2012-05-23 15:54:00
11:54 AM,79.0,51.1,38,29.78,10.0,South,16.1,-,N/A,,Clear,170,2012-05-23 16:54:00
12:54 PM,82.0,52.0,35,29.76,10.0,SSE,12.7,-,N/A,,Clear,160,2012-05-23 17:54:00
1:54 PM,84.0,51.1,32,29.74,10.0,SE,15.0,-,N/A,,Clear,130,2012-05-23 18:54:00
2:54 PM,84.9,51.1,31,29.71,10.0,SE,13.8,-,N/A,,Clear,140,2012-05-23 19:54:00
3:54 PM,86.0,52.0,31,29.69,10.0,SSE,16.1,20.7,N/A,,Clear,150,2012-05-23 20:54:00
4:54 PM,84.2,51.8,33,29.68,10.0,SSE,16.1,21.9,N/A,,Clear,150,2012-05-23 21:54:00
5:54 PM,84.9,51.1,31,29.65,10.0,SE,16.1,23.0,N/A,,Clear,140,2012-05-23 22:54:00
6:54 PM,82.9,51.1,33,29.62,10.0,SE,15.0,23.0,N/A,,Clear,140,2012-05-23 23:54:00
7:54 PM,79.0,51.1,38,29.62,10.0,SE,12.7,-,N/A,,Clear,140,2012-05-24 00:54:00
8:54 PM,75.9,50.0,40,29.63,10.0,SSE,10.4,-,N/A,,Clear,150,2012-05-24 01:54:00
9:54 PM,73.9,50.0,43,29.64,10.0,SE,11.5,-,N/A,,Clear,140,2012-05-24 02:54:00
10:54 PM,72.0,51.1,48,29.65,10.0,SSE,13.8,-,N/A,,Clear,150,2012-05-24 03:54:00
11:54 PM,72.0,48.9,44,29.65,10.0,SSE,13.8,-,N/A,,Clear,160,2012-05-24 04:54:00